TimeMDT,TemperatureF,Dew PointF,Humidity,Sea Level PressureIn,VisibilityMPH,Wind Direction,Wind SpeedMPH,Gust SpeedMPH,PrecipitationIn,Events,Conditions,WindDirDegrees,DateUTC
12:53 AM,55.0,53.1,93,29.85,10.0,Calm,Calm,-,0.02,,Clear,0,2013-08-02 06:53:00
1:53 AM,57.0,53.1,87,29.82,10.0,Calm,Calm,-,0.01,,Overcast,0,2013-08-02 07:53:00
2:53 AM,57.9,50.0,75,29.84,10.0,ENE,3.5,-,N/A,,Partly Cloudy,60,2013-08-02 08:53:00
3:53 AM,54.0,51.1,90,29.88,10.0,North,4.6,-,N/A,,Scattered Clouds,360,2013-08-02 09:53:00
4:53 AM,54.0,52.0,93,29.89,10.0,NE,3.5,-,N/A,,Mostly Cloudy,50,2013-08-02 10:53:00
5:41 AM,55.4,55.4,100,30.06,10.0,NE,11.5,-,N/A,,Scattered Clouds,50,2013-08-02 11:41:00
5:53 AM,57.0,55.9,96,29.88,10.0,NE,8.1,-,N/A,,Mostly Cloudy,40,2013-08-02 11:53:00
6:14 AM,57.2,55.4,94,30.06,4.0,NE,10.4,-,N/A,,Overcast,50,2013-08-02 12:14:00
6:27 AM,55.4,55.4,100,30.06,0.8,ENE,9.2,-,N/A,,Overcast,60,2013-08-02 12:27:00
6:35 AM,55.4,55.4,100,30.07,0.2,ENE,13.8,20.7,N/A,Fog,Fog,70,2013-08-02 12:35:00
6:53 AM,53.1,53.1,100,29.90,0.2,NE,13.8,23.0,N/A,Fog,Fog,50,2013-08-02 12:53:00
7:19 AM,51.8,51.8,100,30.07,0.5,NE,11.5,-,N/A,Fog,Fog,50,2013-08-02 13:19:00
7:51 AM,50.0,50.0,100,30.08,1.2,NE,12.7,23.0,N/A,,Overcast,50,2013-08-02 13:51:00
7:53 AM,50.0,50.0,100,29.92,1.5,NE,10.4,23.0,N/A,,Overcast,50,2013-08-02 13:53:00
8:24 AM,50.0,50.0,100,30.09,0.8,NE,13.8,19.6,N/A,,Overcast,50,2013-08-02 14:24:00
8:32 AM,50.0,50.0,100,30.09,1.5,NE,11.5,19.6,N/A,,Overcast,40,2013-08-02 14:32:00
8:49 AM,50.0,50.0,100,30.10,0.5,NE,10.4,-,N/A,Fog,Fog,40,2013-08-02 14:49:00
8:53 AM,50.0,50.0,100,29.96,0.5,NE,10.4,-,N/A,Fog,Fog,50,2013-08-02 14:53:00
9:02 AM,50.0,50.0,100,30.10,0.2,NE,11.5,18.4,N/A,Fog,Fog,40,2013-08-02 15:02:00
9:11 AM,51.8,51.8,100,30.11,0.2,NE,12.7,-,N/A,Fog,Fog,40,2013-08-02 15:11:00
9:51 AM,51.8,51.8,100,30.14,0.5,NE,11.5,21.9,N/A,Fog,Fog,50,2013-08-02 15:51:00
9:53 AM,51.1,51.1,100,30.01,0.5,NE,16.1,21.9,N/A,Fog,Fog,50,2013-08-02 15:53:00
10:03 AM,51.8,51.8,100,30.14,2.0,NE,15.0,20.7,N/A,,Overcast,40,2013-08-02 16:03:00
10:14 AM,51.8,50.0,94,30.15,3.0,NE,13.8,21.9,N/A,,Overcast,40,2013-08-02 16:14:00
10:53 AM,52.0,51.1,97,30.02,7.0,NE,15.0,19.6,N/A,,Overcast,50,2013-08-02 16:53:00
11:53 AM,52.0,51.1,97,30.04,10.0,NE,13.8,20.7,N/A,,Overcast,50,2013-08-02 17:53:00
12:13 PM,55.4,53.6,94,30.15,10.0,East,15.0,23.0,N/A,,Overcast,80,2013-08-02 18:13:00
12:20 PM,57.2,51.8,82,30.15,10.0,ENE,16.1,23.0,N/A,,Overcast,70,2013-08-02 18:20:00
12:53 PM,61.0,53.1,75,29.99,10.0,ENE,18.4,23.0,N/A,,Mostly Cloudy,70,2013-08-02 18:53:00
1:05 PM,60.8,51.8,72,30.13,10.0,East,10.4,19.6,N/A,,Mostly Cloudy,100,2013-08-02 19:05:00
1:13 PM,60.8,51.8,72,30.13,10.0,East,11.5,20.7,N/A,,Partly Cloudy,80,2013-08-02 19:13:00
1:53 PM,63.0,50.0,63,29.98,10.0,SE,12.7,19.6,N/A,,Clear,130,2013-08-02 19:53:00
2:53 PM,64.9,53.1,65,29.96,10.0,SE,9.2,-,N/A,,Clear,140,2013-08-02 20:53:00
3:53 PM,64.0,53.1,67,29.97,10.0,SSE,5.8,-,N/A,,Scattered Clouds,160,2013-08-02 21:53:00
4:53 PM,64.9,54.0,68,29.95,10.0,ESE,10.4,-,N/A,,Clear,120,2013-08-02 22:53:00
5:53 PM,64.9,53.1,65,29.96,10.0,East,8.1,17.3,N/A,,Scattered Clouds,80,2013-08-02 23:53:00
6:05 PM,64.4,53.6,68,30.13,10.0,ESE,12.7,18.4,N/A,,Mostly Cloudy,110,2013-08-03 00:05:00
6:13 PM,64.4,53.6,68,30.13,10.0,East,12.7,-,N/A,,Scattered Clouds,90,2013-08-03 00:13:00
6:29 PM,64.4,53.6,68,30.13,10.0,East,12.7,-,N/A,,Mostly Cloudy,100,2013-08-03 00:29:00
6:37 PM,64.4,53.6,68,30.13,10.0,East,10.4,-,N/A,,Scattered Clouds,80,2013-08-03 00:37:00
6:53 PM,64.9,54.0,68,29.99,10.0,East,9.2,19.6,N/A,,Partly Cloudy,80,2013-08-03 00:53:00
7:53 PM,63.0,53.1,70,30.01,10.0,East,9.2,-,N/A,,Clear,100,2013-08-03 01:53:00
8:53 PM,59.0,53.1,81,30.05,10.0,East,5.8,-,N/A,,Clear,80,2013-08-03 02:53:00
9:26 PM,57.2,55.4,94,30.18,10.0,ENE,9.2,-,N/A,,Scattered Clouds,70,2013-08-03 03:26:00
9:34 PM,57.2,55.4,94,30.18,10.0,East,6.9,-,N/A,,Mostly Cloudy,80,2013-08-03 03:34:00
9:53 PM,57.9,55.0,90,30.07,10.0,East,8.1,-,N/A,,Overcast,90,2013-08-03 03:53:00
10:53 PM,57.0,55.0,93,30.08,10.0,East,6.9,-,N/A,,Overcast,90,2013-08-03 04:53:00
11:24 PM,57.2,55.4,94,30.20,10.0,East,6.9,-,N/A,,Overcast,80,2013-08-03 05:24:00
11:37 PM,55.4,55.4,100,30.19,1.8,East,6.9,-,N/A,,Overcast,80,2013-08-03 05:37:00
11:53 PM,55.9,55.0,97,30.07,1.5,ENE,6.9,-,N/A,,Overcast,70,2013-08-03 05:53:00